Startpagina
METAR-TAF:

METAR-TAF

Vliegvelden :

Mc Elroy Airfield

Kremmling, Colorado, Verenigde Staten

breedte: 40-03-13N, lengte: 106-22-08W, hoogte: 2259 m

Actueel weer

Dit bericht is 21 minuten geleden gemaakt, om 13:30 UTC
Wind 3 kt uit het oostzuidoosten
Temperatuur 2°C
Vochtigheid 75%
Druk 1011 hPa
Zicht: 16.1 km
Geheel bewolkt op 2800 ft
lichte regen

METAR: K20V 181330Z AUTO 12003KT 10SM -RA OVC028 02/M02 A2984 RMK AO2

Tijdstip: 07:51 (13:51 UTC)


TAF: ontbreekt

Waarnemingen en weersverwachtingen van meer dan 4000 vliegvelden (METAR en TAF).

De beschikbare stations zijn de gele en rode punten op de kaart.

Ga met uw muis naar het station om de naam te zien.

Klik dan om waarnemingen en weersverwachtingen te zien.

kaart wijzigen: klik op de groene knoppen met een zwart kruis om in te zoomen, op de groene knop met een streepje om uit te zoomen of op de groene pijlen voor aangrenzende kaarten.


METAR-TAF: